Location: Kitchener-Waterloo
(43.4500°N, 80.5000°W)
Time: 11:21:37
(UTC-05:00)

ISS - All Passes

Search period start: 23 February 2017 00:00
Search period end: 05 March 2017 00:00
Orbit: 399 x 408 km, 51.6° (Epoch: 24 February)

Date Brightness Start Highest point End Pass type
(mag) Time Alt. Az. Time Alt. Az. Time Alt. Az.
23 Feb - 08:08:38 10° SSE 08:10:30 14° SE 08:12:22 10° E daylight
23 Feb - 09:43:16 10° WSW 09:46:34 77° NNW 09:49:52 10° NE daylight
23 Feb - 11:20:43 10° WNW 11:23:26 23° NNW 11:26:09 10° NE daylight
23 Feb - 12:58:06 10° NW 13:00:41 21° N 13:03:15 10° ENE daylight
23 Feb - 14:34:26 10° NW 14:37:40 52° NNE 14:40:54 10° ESE daylight
23 Feb - 16:11:20 10° W 16:13:55 22° SW 16:16:30 10° S daylight
24 Feb - 08:50:50 10° SW 08:54:04 59° SE 08:57:20 10° ENE daylight
24 Feb - 10:27:47 10° W 10:30:43 29° NNW 10:33:40 10° NE daylight
24 Feb - 12:05:26 10° NW 12:07:55 19° N 12:10:23 10° NE daylight
24 Feb - 13:41:59 10° NW 13:45:03 34° NNE 13:48:06 10° E daylight
24 Feb - 15:18:26 10° WNW 15:21:33 40° SW 15:24:38 10° SSE daylight
25 Feb - 07:58:41 10° SSW 08:01:38 31° SE 08:04:36 10° ENE daylight
25 Feb - 09:34:54 10° W 09:38:03 40° NNW 09:41:12 10° NE daylight
25 Feb - 11:12:38 10° NW 11:15:08 20° N 11:17:38 10° NE daylight
25 Feb - 12:49:30 10° NW 12:52:21 26° NNE 12:55:11 10° ENE daylight
25 Feb - 14:25:47 10° WNW 14:29:05 75° SW 14:32:21 10° SE daylight
26 Feb - 07:07:00 10° S 07:09:16 17° SE 07:11:32 10° E daylight
26 Feb - 08:42:09 10° WSW 08:45:25 64° NNW 08:48:42 10° NE daylight
26 Feb - 10:19:41 10° WNW 10:22:21 22° N 10:25:00 10° NE daylight
26 Feb - 11:56:57 10° NW 11:59:37 21° N 12:02:14 10° ENE daylight
26 Feb - 13:33:15 10° NW 13:36:32 62° NNE 13:39:47 10° ESE daylight
26 Feb - 15:10:22 10° W 15:12:42 18° SW 15:15:00 10° S daylight
27 Feb - 07:49:35 10° SW 07:52:52 72° SE 07:56:09 10° ENE daylight
27 Feb - 09:26:43 10° WNW 09:29:35 26° NNW 09:32:27 10° NE daylight
27 Feb - 11:04:18 10° NW 11:06:48 19° N 11:09:18 10° NE daylight
27 Feb - 12:40:45 10° NW 12:43:53 39° NNE 12:47:00 10° E daylight
27 Feb - 14:17:19 10° WNW 14:20:18 32° SW 14:23:17 10° SSE daylight
28 Feb - 06:57:17 10° SSW 07:00:22 38° SE 07:03:28 10° ENE daylight
28 Feb - 08:33:46 10° W 08:36:51 35° NNW 08:39:56 10° NE daylight
28 Feb - 10:11:29 10° NW 10:13:58 19° N 10:16:27 10° NE daylight
28 Feb - 11:48:15 10° NW 11:51:10 28° NNE 11:54:05 10° E daylight
28 Feb - 13:24:34 10° WNW 13:27:50 62° SW 13:31:04 10° SE daylight
01 Mar - 06:05:23 10° S 06:07:57 21° SE 06:10:30 10° E visible
01 Mar - 07:40:56 10° WSW 07:44:10 55° NNW 07:47:26 10° NE daylight
01 Mar - 09:18:32 10° WNW 09:21:09 21° N 09:23:44 10° NE daylight
01 Mar - 10:55:42 10° NW 10:58:23 23° NNE 11:01:05 10° ENE daylight
01 Mar - 12:31:57 10° NW 12:35:16 74° NNE 12:38:32 10° ESE daylight
01 Mar - 14:09:23 10° W 14:11:21 15° SW 14:13:18 10° S daylight
02 Mar - 05:14:26 10° SSE 05:15:34 11° SE 05:16:43 10° ESE visible
02 Mar - 06:48:15 10° SW 06:51:33 87° SSE 06:54:52 10° ENE daylight
02 Mar - 08:25:32 10° WNW 08:28:20 25° NNW 08:31:07 10° NE daylight
02 Mar - 10:03:02 10° NW 10:05:34 20° N 10:08:05 10° NE daylight
02 Mar - 11:39:25 10° NW 11:42:36 44° NNE 11:45:47 10° E daylight
02 Mar - 13:16:06 10° WNW 13:18:57 27° SW 13:21:46 10° SSE daylight
03 Mar - 05:55:49 10° SW 05:58:59 46° SE 06:02:10 10° ENE visible
03 Mar - 07:32:32 10° W 07:35:32 32° NNW 07:38:34 10° NE daylight
03 Mar - 09:10:14 10° NW 09:12:42 19° N 09:15:10 10° NE daylight
03 Mar - 10:46:52 10° NW 10:49:52 31° NNE 10:52:51 10° E daylight
03 Mar - 12:23:14 10° WNW 12:26:27 50° SW 12:29:38 10° SE daylight
04 Mar - 05:03:44 10° SSW 05:06:30 25° SE 05:09:16 10° E visible
04 Mar - 06:39:37 10° WSW 06:42:48 47° NNW 06:46:01 10° NE daylight
04 Mar - 08:17:17 10° WNW 08:19:49 20° N 08:22:23 10° NE daylight
04 Mar - 09:54:18 10° NW 09:57:04 24° NNE 09:59:49 10° ENE daylight
04 Mar - 11:30:33 10° WNW 11:33:52 88° NE 11:37:09 10° ESE daylight
04 Mar - 13:08:27 10° WSW 13:09:52 12° SW 13:11:17 10° SSW daylight
